Location: Góry Miechowskie
(50.3599°N, 20.1803°E)
Time: 23:02:30
(UTC+00:00)

Transit 2A Rocket - Pass Details

Date: 19 September 2024
Orbit: 582 x 908 km, 66.7° (Epoch: 09 October)

Event Time Altitude Azimuth Distance (km) Brightness Sun altitude
Exits shadow 01:44:51 - 308° (NW) 3,162 8.0 -24.2°
Reaches altitude 10° 01:47:07 10° 323° (NW) 2,597 7.7 -23.9°
Maximum altitude 01:50:51 16° 1° (N) 2,145 7.7 -23.4°
Drops below altitude 10° 01:54:29 10° 39° (NE) 2,535 8.7 -22.9°
Sets 01:57:57 0° 60° (ENE) 3,421 9.9 -22.4°
